Regional Weather Roundup
Issued by NWS

Home | Current Version | Previous Version | Graphics & Text | Print | Product List | Glossary On
Versions: 1 2 3 4 5 6 7 8 9 10 11 12 13 14 15 16 17 18 19 20 21 22 23 24 25 26 27 28 29 30 31 32 33 34 35 36 37 38 39 40 41 42 43 44 45 46 47 48 49 50
000
ASUS45 KBOI 191510
RWRID
WEATHER ROUNDUP FOR IDAHO
NATIONAL WEATHER SERVICE BOISE ID
900 AM MDT TUE AUG 19 2014

NOTE: "FAIR" INDICATES FEW OR NO CLOUDS BELOW 12000 FEET
WITH NO SIGNIFICANT WEATHER AND/OR OBSTRUCTIONS TO VISIBILITY

IDZ012-014-191600-
SOUTHWEST IDAHO


CITY           SKY/WX    TMP DP  RH WIND       PRES   REMARKS
BOISE          MOSUNNY   71  45  39 VRB6G18   29.80R
CALDWELL       MOSUNNY   64  46  52 CALM      29.81S
MOUNTAIN HOME  MOSUNNY   71  46  41 SW5       29.81R
$$

IDZ016-017-191600-
SOUTHCENTRAL IDAHO


CITY           SKY/WX    TMP DP  RH WIND       PRES   REMARKS
BURLEY         CLOUDY    66  55  67 CALM      29.87R
JEROME         MOSUNNY   63  52  67 NE12      29.89R
TWIN FALLS     MOSUNNY   65  48  54 CALM      29.90R
$$

IDZ019>023-191600-
SOUTHEAST IDAHO


CITY           SKY/WX    TMP DP  RH WIND       PRES   REMARKS
IDAHO FALLS    PTSUNNY   58  51  78 NW9       29.95S
POCATELLO      SUNNY     67  51  56 E6        29.91F
REXBURG        PTSUNNY   54  48  80 NE6       29.96S
$$

IDZ006-010-011-018-031-032-191600-
CENTRAL IDAHO MOUNTAINS


CITY           SKY/WX    TMP DP  RH WIND       PRES   REMARKS
MCCALL         SUNNY     57  44  62 CALM      29.93S
HAILEY         PTSUNNY   63  45  51 NW9       29.99S
STANLEY          N/A     49  35  58 CALM      30.07F
SALMON         SUNNY     57  48  72 N3        29.91F
CHALLIS        SUNNY     61  38  42 CALM      29.98R
$$

IDZ002-004-006-007-026-191600-
NORTHERN IDAHO


CITY           SKY/WX    TMP DP  RH WIND       PRES   REMARKS
LEWISTON       SUNNY     70  52  52 E5        29.77S
LOWELL           N/A     59  54  83 N3        29.85S
COEUR D`ALENE  PTSUNNY   70  57  64 E7        29.81R
MULLAN PASS    SUNNY     61  46  57 CALM      29.97S
$$


USA.gov is the U.S. government's official web portal to all federal, state and local government web resources and services.